Weather History for KCWA - March, 2013

Change the Weather History Date:

Thursday, March 28, 2013

  Actual Average Record
Temperature  
Mean Temperature 31 °F -  
Max Temperature 41 °F 43 °F 62 °F (2005)
Min Temperature 21 °F 26 °F 8 °F (2011)
Degree Days  
Heating Degree Days 34    
Moisture  
Dew Point 18 °F    
Average Humidity 61    
Maximum Humidity 80    
Minimum Humidity 39    
Precipitation  
Precipitation 0.00 in - - ()
Sea Level Pressure  
Sea Level Pressure 30.29 in    
Wind  
Wind Speed 6 mph (NW)    
Max Wind Speed 9 mph    
Max Gust Speed -    
Visibility 10 miles    
Events      
Averages and records for this station are not official NWS values.
T = Trace of Precipitation, MM = Missing Value Source: NWS Daily Summary

Daily Weather History Graph

Daily Weather History Graph

Search for Another Location

Airport or City:

Trip Planner

Search our weather history database for the weather conditions in past years. The results will help you decide how hot, cold, wet, or windy it might be!

Date:

Astronomy

Mar. 28, 2013 Rise Set
Actual Time 6:46 AM CDT 7:21 PM CDT
Civil Twilight 6:17 AM CDT 7:51 PM CDT
Nautical Twilight 5:42 AM CDT 8:25 PM CDT
Astronomical Twilight 5:06 AM CDT 9:02 PM CDT
Moon 9:19 PM CDT (3/28) 7:09 AM CDT (3/28)
Length of Visible Light 13h 34m
Length of Day
12h 35m
Full, 98% of the Moon is Illuminated
Mar 28
Full
Apr 2
Last Quarter
Apr 10
New
Apr 18
First Quarter
Apr 25
Full

Hourly Weather History & Observations

Time (CDT) Temp. Windchill Dew Point Humidity Pressure Visibility Wind Dir Wind Speed Gust Speed Precip Events Conditions
12:15 AM 26.6 °F 19.1 °F 19.4 °F 74% 30.28 in 10.0 mi NW 6.9 mph - N/A   Clear
12:35 AM 26.6 °F 20.0 °F 19.4 °F 74% 30.28 in 10.0 mi NW 5.8 mph - N/A   Clear
12:55 AM 26.6 °F 19.1 °F 19.4 °F 74% 30.28 in 10.0 mi NW 6.9 mph - N/A   Clear
1:15 AM 28.4 °F 21.2 °F 19.4 °F 69% 30.28 in 10.0 mi NNW 6.9 mph - N/A   Clear
1:35 AM 28.4 °F 20.4 °F 19.4 °F 69% 30.29 in 10.0 mi NNW 8.1 mph - N/A   Clear
1:55 AM 28.4 °F 21.2 °F 19.4 °F 69% 30.29 in 10.0 mi NNW 6.9 mph - N/A   Clear
2:15 AM 28.4 °F 21.2 °F 17.6 °F 64% 30.29 in 10.0 mi NNW 6.9 mph - N/A   Clear
2:35 AM 26.6 °F 19.1 °F 17.6 °F 69% 30.29 in 10.0 mi NNW 6.9 mph - N/A   Clear
2:55 AM 28.4 °F 21.2 °F 17.6 °F 64% 30.29 in 10.0 mi NNW 6.9 mph - N/A   Clear
3:15 AM 28.4 °F 22.2 °F 17.6 °F 64% 30.29 in 10.0 mi NNW 5.8 mph - N/A   Clear
3:35 AM 26.6 °F 21.2 °F 17.6 °F 69% 30.30 in 10.0 mi NNW 4.6 mph - N/A   Clear
3:55 AM 26.6 °F 20.0 °F 17.6 °F 69% 30.29 in 10.0 mi NNW 5.8 mph - N/A   Clear
4:15 AM 26.6 °F 21.2 °F 17.6 °F 69% 30.29 in 10.0 mi NNW 4.6 mph - N/A   Clear
4:35 AM 26.6 °F 20.0 °F 17.6 °F 69% 30.30 in 10.0 mi NNW 5.8 mph - N/A   Clear
5:15 AM 26.6 °F 21.2 °F 17.6 °F 69% 30.29 in 10.0 mi NNW 4.6 mph - N/A   Clear
5:35 AM 23.0 °F 15.8 °F 15.8 °F 74% 30.30 in 10.0 mi NNW 5.8 mph - N/A   Clear
5:45 AM 21.2 °F 14.9 °F 15.8 °F 80% 30.30 in 10.0 mi NW 4.6 mph - N/A   Clear
6:55 AM 21.2 °F 13.6 °F 15.8 °F 80% 30.31 in 10.0 mi NW 5.8 mph - N/A   Clear
7:45 AM 24.8 °F 17.9 °F 17.6 °F 74% 30.31 in 10.0 mi NW 5.8 mph - N/A   Clear
9:45 AM 33.8 °F 29.6 °F 19.4 °F 56% 30.32 in 10.0 mi NW 4.6 mph - N/A   Clear
9:55 AM 30.2 °F 24.3 °F 17.6 °F 60% 30.32 in 10.0 mi NNW 5.8 mph - N/A   Clear
10:50 AM 37.4 °F 32.1 °F 17.6 °F 45% 30.32 in 10.0 mi NNW 6.9 mph - N/A   Clear
11:55 AM 39.2 °F 35.9 °F 17.6 °F 42% 30.31 in 10.0 mi West 4.6 mph - N/A   Clear
12:45 PM 39.2 °F 33.6 °F 17.6 °F 42% 30.30 in 10.0 mi WNW 8.1 mph - N/A   Clear
1:45 PM 39.2 °F 33.6 °F 15.8 °F 39% 30.29 in 10.0 mi WNW 8.1 mph - N/A   Clear
2:45 PM 41.0 °F 35.8 °F 17.6 °F 39% 30.28 in 10.0 mi WSW 8.1 mph - N/A   Clear
3:45 PM 41.0 °F 35.2 °F 19.4 °F 42% 30.27 in 10.0 mi West 9.2 mph - N/A   Clear
4:45 PM 39.2 °F 33.0 °F 19.4 °F 45% 30.26 in 10.0 mi WSW 9.2 mph - N/A   Clear
5:45 PM 39.2 °F 34.2 °F 21.2 °F 49% 30.26 in 10.0 mi West 6.9 mph - N/A   Clear
6:45 PM 37.4 °F 32.1 °F 19.4 °F 48% 30.26 in 10.0 mi WSW 6.9 mph - N/A   Clear
7:45 PM 35.6 °F 31.7 °F 17.6 °F 48% 30.26 in 10.0 mi WSW 4.6 mph - N/A   Clear
9:50 PM 33.8 °F 29.6 °F 15.8 °F 48% 30.28 in 10.0 mi West 4.6 mph - N/A   Clear